When you browse on this site, cookies collect data to enhance your experience and personalize the content and advertising you see.
Visit our Privacy Policy to learn more. By continuing to use the site, you agree to this use of cookies and data.
  • In Czech Republic
  • List of Countries
  • For 7 days
  • Water Temperature
  • Satellite Maps
  • Weather Map
  • Weather Widgets
  • user-avatar
    Login

    Hourly Weather Novaya Zhizn

    Today, 19 February, Tuesday

    Time Temperature Precipitation Wind Pressure Humidity
    00:00 -6°C° 0 mm 2 mps 750 mmHg 84%
    01:00 -7°C° 0 mm 3 mps 750 mmHg 84%
    02:00 -9°C° 0 mm 3 mps 750 mmHg 85%
    03:00 -9°C° 0 mm 3 mps 749 mmHg 85%
    04:00 -9°C° 0 mm 3 mps 749 mmHg 85%
    05:00 -9°C° 0 mm 4 mps 748 mmHg 85%
    06:00 -9°C° 0 mm 4 mps 748 mmHg 85%
    07:00 -9°C° 0 mm 4 mps 748 mmHg 85%
    08:00 -10°C° 0 mm 5 mps 747 mmHg 84%
    09:00 -7°C° 0 mm 5 mps 747 mmHg 83%
    10:00 -6°C° 0 mm 5 mps 746 mmHg 82%
    11:00 -4°C° 0 mm 6 mps 746 mmHg 81%
    12:00 -3°C° 0 mm 6 mps 745 mmHg 83%
    13:00 -3°C° 0 mm 6 mps 744 mmHg 85%
    14:00 -2°C° 0 mm 6 mps 744 mmHg 87%
    15:00 -2°C° 0 mm 6 mps 743 mmHg 87%
    16:00 -2°C° 0 mm 6 mps 742 mmHg 87%
    17:00 -3°C° 0 mm 6 mps 742 mmHg 87%
    18:00 -2°C° 0 mm 6 mps 741 mmHg 88%
    19:00 -2°C° 0 mm 6 mps 740 mmHg 88%
    20:00 -2°C° 0 mm 7 mps 740 mmHg 89%
    21:00 -2°C° 0 mm 6 mps 739 mmHg 90%
    22:00 -2°C° 0 mm 6 mps 739 mmHg 91%
    23:00 -2°C° 0 mm 6 mps 738 mmHg 92%

    Tomorrow, 20 February, Wednesday

    Time Temperature Precipitation Wind Pressure Humidity
    00:00 -2°C° 0 mm 6 mps 738 mmHg 92%
    01:00 -1°C° 0 mm 5 mps 737 mmHg 92%
    02:00 -2°C° 0 mm 5 mps 737 mmHg 92%
    03:00 -1°C° 0.2 mm 5 mps 737 mmHg 92%
    04:00 -1°C° 0.2 mm 5 mps 736 mmHg 93%
    05:00 -1°C° 0.2 mm 4 mps 736 mmHg 94%
    06:00 -1°C° 0 mm 5 mps 736 mmHg 94%
    07:00 -1°C° 0 mm 5 mps 736 mmHg 94%
    08:00 -1°C° 0 mm 5 mps 736 mmHg 95%
    09:00 -1°C° 0.1 mm 5 mps 736 mmHg 96%
    10:00 0°C° 0.1 mm 5 mps 736 mmHg 97%
    11:00 -1°C° 0.1 mm 6 mps 736 mmHg 98%
    12:00 -1°C° 0 mm 6 mps 736 mmHg 96%
    13:00 -1°C° 0 mm 6 mps 736 mmHg 94%
    14:00 -1°C° 0 mm 6 mps 736 mmHg 93%
    15:00 -1°C° 0.1 mm 6 mps 735 mmHg 91%
    16:00 -1°C° 0.1 mm 6 mps 735 mmHg 89%
    17:00 -1°C° 0.1 mm 6 mps 735 mmHg 87%
    18:00 -1°C° 0.3 mm 6 mps 735 mmHg 88%
    19:00 -1°C° 0.3 mm 6 mps 735 mmHg 88%
    20:00 -1°C° 0.3 mm 7 mps 735 mmHg 88%
    21:00 -3°C° 0.1 mm 7 mps 735 mmHg 84%
    22:00 -4°C° 0.1 mm 6 mps 735 mmHg 80%
    23:00 -6°C° 0.1 mm 6 mps 735 mmHg 76%

    Day after tomorrow, 21 February, Thursday

    Time Temperature Precipitation Wind Pressure Humidity
    00:00 -7°C° 0.1 mm 7 mps 736 mmHg 77%
    01:00 -7°C° 0.1 mm 8 mps 736 mmHg 78%
    02:00 -6°C° 0.1 mm 8 mps 737 mmHg 79%
    03:00 -7°C° 0 mm 8 mps 737 mmHg 78%
    04:00 -7°C° 0 mm 8 mps 737 mmHg 78%
    05:00 -7°C° 0 mm 7 mps 738 mmHg 78%
    06:00 -8°C° 0 mm 7 mps 738 mmHg 77%
    07:00 -8°C° 0 mm 7 mps 739 mmHg 77%
    08:00 -8°C° 0 mm 7 mps 739 mmHg 76%
    09:00 -8°C° 0 mm 7 mps 739 mmHg 74%
    10:00 -8°C° 0 mm 8 mps 740 mmHg 72%
    11:00 -10°C° 0 mm 8 mps 740 mmHg 69%
    12:00 -8°C° 0 mm 8 mps 741 mmHg 69%
    13:00 -8°C° 0 mm 8 mps 741 mmHg 69%
    14:00 -8°C° 0 mm 8 mps 742 mmHg 69%
    15:00 -8°C° 0 mm 7 mps 742 mmHg 70%
    16:00 -8°C° 0 mm 7 mps 743 mmHg 71%
    17:00 -8°C° 0 mm 6 mps 743 mmHg 71%
    18:00 -9°C° 0 mm 6 mps 744 mmHg 73%
    19:00 -9°C° 0 mm 6 mps 744 mmHg 75%
    20:00 -10°C° 0 mm 5 mps 745 mmHg 77%
    21:00 -10°C° 0 mm 5 mps 745 mmHg 76%
    22:00 -11°C° 0 mm 6 mps 746 mmHg 75%
    23:00 -11°C° 0 mm 6 mps 746 mmHg 74%

    22 February, Friday

    Time Temperature Precipitation Wind Pressure Humidity
    00:00 -12°C° 0 mm 6 mps 747 mmHg 75%
    01:00 -12°C° 0 mm 6 mps 747 mmHg 75%
    02:00 -13°C° 0 mm 5 mps 748 mmHg 75%
    03:00 -14°C° 0 mm 6 mps 749 mmHg 75%
    04:00 -14°C° 0 mm 6 mps 749 mmHg 75%
    05:00 -14°C° 0 mm 6 mps 750 mmHg 75%
    06:00 -14°C° 0 mm 6 mps 751 mmHg 75%
    07:00 -15°C° 0 mm 6 mps 751 mmHg 74%
    08:00 -15°C° 0 mm 6 mps 752 mmHg 74%
    09:00 -14°C° 0 mm 6 mps 752 mmHg 72%
    10:00 -12°C° 0 mm 6 mps 753 mmHg 69%
    11:00 -11°C° 0 mm 6 mps 753 mmHg 67%
    12:00 -11°C° 0 mm 7 mps 753 mmHg 66%
    13:00 -11°C° 0 mm 7 mps 753 mmHg 65%
    14:00 -9°C° 0 mm 7 mps 753 mmHg 63%
    15:00 -9°C° 0 mm 7 mps 753 mmHg 64%
    16:00 -10°C° 0 mm 6 mps 753 mmHg 64%
    17:00 -10°C° 0 mm 6 mps 753 mmHg 65%
    18:00 -10°C° 0 mm 6 mps 753 mmHg 68%
    19:00 -10°C° 0 mm 6 mps 754 mmHg 72%
    20:00 -12°C° 0 mm 7 mps 754 mmHg 76%
    21:00 -12°C° 0 mm 7 mps 754 mmHg 76%
    22:00 -12°C° 0 mm 6 mps 755 mmHg 76%
    23:00 -12°C° 0 mm 6 mps 755 mmHg 76%

    23 February, Saturday

    Time Temperature Precipitation Wind Pressure Humidity
    00:00 -14°C° 0 mm 6 mps 755 mmHg 76%
    01:00 -14°C° 0 mm 5 mps 756 mmHg 76%
    02:00 -14°C° 0 mm 5 mps 756 mmHg 76%
    03:00 -14°C° 0 mm 5 mps 756 mmHg 77%
    04:00 -15°C° 0 mm 5 mps 757 mmHg 78%
    05:00 -15°C° 0 mm 5 mps 757 mmHg 79%
    06:00 -15°C° 0 mm 4 mps 757 mmHg 80%
    07:00 -15°C° 0 mm 4 mps 757 mmHg 81%
    08:00 -15°C° 0 mm 4 mps 758 mmHg 82%
    09:00 -14°C° 0 mm 4 mps 758 mmHg 80%
    10:00 -14°C° 0 mm 4 mps 758 mmHg 78%
    11:00 -12°C° 0 mm 4 mps 758 mmHg 76%
    12:00 -11°C° 0 mm 4 mps 758 mmHg 74%
    13:00 -11°C° 0 mm 4 mps 758 mmHg 71%
    14:00 -10°C° 0 mm 4 mps 758 mmHg 69%
    15:00 -10°C° 0 mm 4 mps 758 mmHg 71%
    16:00 -9°C° 0 mm 3 mps 758 mmHg 72%
    17:00 -9°C° 0 mm 3 mps 758 mmHg 73%
    18:00 -10°C° 0 mm 3 mps 758 mmHg 74%
    19:00 -10°C° 0 mm 3 mps 758 mmHg 76%
    20:00 -10°C° 0 mm 3 mps 758 mmHg 77%
    21:00 -9°C° 0 mm 2 mps 759 mmHg 78%
    22:00 -9°C° 0 mm 2 mps 759 mmHg 78%
    23:00 -9°C° 0 mm 2 mps 759 mmHg 79%

    24 February, Sunday

    Time Temperature Precipitation Wind Pressure Humidity
    00:00 -9°C° 0 mm 2 mps 759 mmHg 79%
    01:00 -10°C° 0 mm 2 mps 759 mmHg 80%
    02:00 -10°C° 0 mm 2 mps 759 mmHg 80%
    03:00 -9°C° 0 mm 1 mps 759 mmHg 80%
    04:00 -9°C° 0 mm 1 mps 759 mmHg 80%
    05:00 -10°C° 0 mm 1 mps 759 mmHg 80%
    06:00 -9°C° 0 mm 1 mps 760 mmHg 78%
    07:00 -9°C° 0 mm 1 mps 760 mmHg 77%
    08:00 -9°C° 0 mm 1 mps 760 mmHg 75%
    09:00 -8°C° 0 mm 1 mps 760 mmHg 71%
    10:00 -7°C° 0 mm 1 mps 760 mmHg 66%
    11:00 -4°C° 0 mm 1 mps 761 mmHg 62%
    12:00 -4°C° 0 mm 1 mps 760 mmHg 64%
    13:00 -5°C° 0 mm 2 mps 760 mmHg 67%
    14:00 -4°C° 0 mm 2 mps 760 mmHg 69%
    15:00 -5°C° 0 mm 2 mps 760 mmHg 74%
    16:00 -5°C° 0 mm 2 mps 759 mmHg 79%
    17:00 -6°C° 0 mm 2 mps 759 mmHg 85%
    18:00 -6°C° 0 mm 2 mps 759 mmHg 86%
    19:00 -6°C° 0 mm 2 mps 759 mmHg 87%
    20:00 -6°C° 0 mm 2 mps 759 mmHg 89%
    21:00 -6°C° 0 mm 2 mps 758 mmHg 90%
    22:00 -7°C° 0 mm 3 mps 758 mmHg 90%
    23:00 -7°C° 0 mm 3 mps 757 mmHg 91%
    Show more